Theta_e
324 324 326 327 328 329 329 330 331 332 333 335 337 337 337 337 336 334 336 336 334 334 334 333 330 332 333 333 333 333 332 334 334 334 334 333 333 334 335 335 334 333 334 334 334 337 336 333 334 334 335 335 334 334 333 333 333 331 329 328 327 326 328 328 328 328 326 323 324 326 325 328 331 331 330 330 330 330 333 332 332 332 332 333 333
321 321 322 324 325 326 326 326 328 327 328 330 331 333 334 336 336 337 337 337 336 337 335 336 333 334 331 331 331 332 331 332 331 333 334 334 334 334 333 332 332 333 334 333 335 335 334 333 333 334 335 334 334 335 334 335 333 332 331 328 327 327 326 328 328 329 324 323 320 320 322 324 327 329 329 331 331 330 331 330 329 330 330 331 332
317 318 320 320 322 323 323 324 325 326 326 327 329 330 330 330 332 335 336 336 335 337 335 333 335 335 333 332 334 332 333 333 332 333 334 333 333 335 334 333 333 334 334 335 334 335 335 334 334 335 336 336 334 333 333 333 334 333 332 330 327 327 327 328 329 329 322 323 323 319 316 317 322 324 326 327 329 331 331 330 330 329 330 331 331
314 315 316 318 319 320 321 322 323 324 324 325 326 327 328 328 329 330 333 336 335 336 336 335 335 336 337 336 335 334 332 336 334 334 333 331 331 333 334 334 334 333 335 336 338 338 336 335 335 336 335 336 335 333 332 332 332 332 329 329 329 327 328 327 330 330 326 321 316 317 318 318 315 318 321 324 329 329 331 329 329 328 330 331 330
314 314 315 316 316 317 318 320 322 322 323 324 325 326 327 327 328 328 329 331 333 332 333 335 335 334 334 334 334 333 332 331 332 330 332 333 332 331 332 333 333 333 334 336 338 337 336 337 336 336 335 335 334 333 331 331 330 330 331 329 329 328 327 328 329 330 328 328 322 317 315 314 315 318 320 321 327 327 329 329 329 328 329 329 329
314 314 315 315 316 317 318 319 319 321 322 323 325 326 326 326 326 327 327 329 329 329 330 332 332 333 331 330 328 326 325 326 327 327 329 331 331 332 334 333 333 332 334 335 336 335 336 337 336 336 336 334 331 329 328 328 328 331 328 329 327 330 328 327 327 330 330 329 327 324 323 317 316 319 319 314 325 326 325 329 329 329 329 328 329
314 314 315 315 316 316 317 317 318 319 321 323 324 324 324 324 324 324 325 326 327 327 329 330 330 331 331 332 332 329 327 327 330 331 330 330 333 333 335 336 338 335 333 334 335 336 336 335 335 334 333 331 330 331 330 330 330 329 330 330 330 329 328 325 325 327 329 328 328 327 327 325 326 321 317 318 316 320 324 325 327 330 329 328 329
313 313 314 315 315 316 316 317 318 319 321 321 322 322 321 321 322 322 323 324 325 326 326 328 328 329 329 330 330 331 330 329 329 328 328 329 329 331 333 334 335 335 335 334 335 335 335 334 334 333 335 332 330 331 331 331 331 330 331 330 330 330 328 326 325 326 325 324 327 326 325 326 326 325 324 320 317 316 319 325 326 327 326 327 329
313 313 313 314 314 315 316 317 319 320 320 319 319 319 321 322 322 323 322 323 325 326 326 327 328 327 327 327 326 328 330 331 332 332 328 328 327 329 331 333 334 334 335 335 335 335 336 334 333 333 331 331 332 331 332 332 330 329 328 328 327 328 328 328 327 327 326 325 323 323 325 323 324 322 324 323 318 315 315 320 322 326 326 325 328
313 313 313 314 315 316 317 317 317 318 319 319 318 319 320 320 320 321 321 321 323 324 325 325 326 326 325 325 325 325 326 327 328 328 329 329 328 329 330 331 332 332 334 334 334 335 335 334 333 332 331 332 332 332 331 330 330 329 329 328 328 328 330 329 328 327 326 327 326 324 322 322 322 321 320 321 322 320 316 318 321 321 320 324 328
312 313 313 314 316 316 316 315 316 316 316 317 317 317 318 318 318 318 320 320 321 322 323 323 324 324 323 324 324 324 325 324 323 323 326 326 327 329 330 331 333 333 332 333 333 334 334 333 332 331 331 331 331 331 330 330 329 330 330 329 328 328 327 328 327 327 327 327 326 325 323 322 321 319 320 322 321 319 319 319 321 323 322 321 325
312 312 312 313 313 314 314 313 313 314 315 315 315 316 316 316 315 315 317 318 319 320 321 321 321 322 323 323 323 323 323 323 322 322 324 324 325 325 327 328 329 330 330 329 330 331 332 332 332 332 332 330 330 330 330 330 329 330 330 330 329 328 328 328 329 328 327 326 327 326 325 325 324 323 323 324 322 321 320 319 320 322 323 323 326
311 311 311 312 311 311 310 311 313 313 313 313 314 315 315 314 313 313 314 315 316 318 319 320 320 320 321 320 320 321 320 322 323 323 323 322 322 323 324 325 327 328 328 329 330 332 332 332 332 329 330 331 331 329 328 328 328 329 329 329 329 328 329 329 328 328 328 326 326 327 326 326 325 326 326 325 324 323 322 319 321 323 319 321 324
310 310 311 311 311 311 311 311 312 313 312 313 314 314 313 313 313 313 313 314 315 315 317 318 318 319 319 318 319 319 320 321 322 321 320 320 321 321 323 324 325 326 328 329 330 332 332 332 331 330 330 331 330 330 329 329 330 330 328 329 329 329 329 328 328 328 328 328 327 326 325 326 326 328 327 326 324 322 321 320 320 320 320 320 322
309 308 309 309 310 311 310 311 312 313 313 313 314 314 315 312 313 312 312 313 313 314 315 315 316 317 316 317 318 318 319 320 320 320 319 318 319 321 322 323 323 324 326 329 330 330 331 331 331 330 331 330 330 329 329 329 329 329 329 328 328 329 328 327 327 327 327 327 327 326 326 326 326 327 328 326 326 325 324 323 321 317 317 318 318
308 308 308 309 311 311 311 311 312 314 313 313 313 313 312 312 313 313 312 312 312 314 313 313 314 314 315 316 316 318 319 319 319 319 319 319 319 319 319 320 321 322 325 326 327 329 330 330 331 330 330 330 330 330 329 329 329 327 327 327 327 329 329 328 328 327 327 328 327 327 326 325 325 326 327 328 327 327 326 326 323 320 316 313 317
307 306 307 309 310 311 311 312 312 312 310 310 311 311 311 311 311 311 311 311 312 313 312 312 313 313 314 315 315 316 317 316 317 317 318 319 318 317 317 318 320 321 322 325 325 327 329 329 329 330 329 329 329 329 328 328 329 328 327 327 326 328 327 326 327 328 328 328 328 327 325 325 326 327 327 328 328 326 326 326 325 322 320 316 314
307 307 308 309 309 310 310 310 311 310 310 309 310 310 311 312 311 310 310 310 311 313 313 313 313 312 313 314 315 315 315 316 316 316 317 316 316 315 316 317 318 320 321 322 323 325 328 330 328 328 328 328 328 328 328 328 328 326 326 326 327 328 327 327 326 326 327 328 328 328 327 326 327 328 328 328 327 327 327 326 325 324 323 318 316
306 307 307 308 308 308 309 308 308 309 310 310 310 311 311 310 311 310 310 310 311 313 314 314 313 314 313 313 314 314 314 315 316 316 315 314 314 313 313 315 317 318 319 320 321 322 322 323 324 324 325 325 326 326 327 327 327 327 327 326 327 328 326 326 327 326 327 327 327 326 327 326 327 327 328 328 327 327 327 326 325 325 324 322 319
305 306 307 308 308 308 307 307 308 309 309 309 309 309 309 310 310 310 310 310 311 312 314 312 312 312 312 312 313 314 314 314 314 314 313 313 314 312 311 312 314 316 317 319 318 318 317 317 318 319 320 322 323 325 325 326 326 326 326 326 326 327 326 326 326 326 327 326 326 326 327 327 328 328 327 328 328 328 328 326 326 325 324 323 321
305 306 306 306 305 305 306 307 308 309 309 309 308 308 308 309 309 310 309 310 310 311 311 311 311 311 312 311 310 312 312 312 312 312 312 311 311 311 310 311 312 313 314 315 315 315 315 315 315 316 317 319 322 325 326 325 326 326 326 327 327 326 326 326 325 326 327 326 326 326 326 328 328 327 328 327 326 327 326 326 326 325 324 323 322
305 305 305 305 305 304 305 305 306 306 307 306 307 307 307 307 309 309 309 310 310 311 310 310 310 310 310 310 310 311 311 310 310 311 311 310 310 309 309 309 309 310 312 312 312 313 314 314 313 309 308 306 306 310 313 320 325 326 326 326 325 326 325 324 324 324 325 327 327 325 325 325 327 327 326 326 327 326 325 325 325 325 325 324 324
304 304 304 303 303 303 304 304 303 303 304 304 305 305 305 306 307 308 308 308 309 310 310 309 309 309 309 309 309 309 309 308 308 309 309 310 309 309 309 307 307 308 310 310 310 311 312 312 312 307 306 304 304 304 305 306 309 315 322 325 325 325 324 323 324 324 324 325 324 324 324 325 326 325 326 326 326 326 327 325 324 325 324 325 325
304 303 302 302 302 302 303 302 302 302 302 303 303 304 305 305 306 308 307 307 308 309 309 308 308 307 307 307 308 308 308 307 307 307 307 308 308 308 309 307 306 307 307 308 309 309 309 309 311 305 303 301 301 300 301 301 303 306 310 321 325 325 325 323 323 324 325 324 324 324 324 324 325 324 325 324 324 324 324 325 325 326 326 325 325
301 301 301 301 301 301 302 302 302 302 302 302 303 303 303 304 305 306 307 307 307 308 307 307 307 306 306 306 306 306 306 306 307 307 306 307 307 308 308 306 306 305 305 305 307 308 307 306 308 304 301 299 299 299 298 298 299 301 303 309 318 324 324 324 324 324 325 325 324 323 324 325 324 324 324 325 324 323 325 324 324 326 325 325 325
300 300 300 299 300 301 301 301 302 302 303 303 303 303 303 303 304 305 306 306 306 306 306 305 305 305 305 305 305 305 305 305 306 306 306 306 307 307 306 305 305 304 304 304 304 305 305 304 304 306 301 299 298 297 296 296 296 298 300 304 309 315 322 323 323 324 325 325 324 325 325 325 324 323 323 324 324 324 325 323 323 325 325 324 324
300 299 299 300 300 300 300 301 301 301 302 303 303 303 302 302 303 304 306 306 305 305 305 304 304 304 304 304 304 304 305 305 306 306 306 306 306 306 306 305 305 304 304 303 304 303 304 303 303 304 302 299 297 297 296 295 295 296 297 299 303 307 313 320 325 325 325 326 326 325 325 326 325 324 324 324 325 324 324 323 322 322 323 324 323
299 299 299 299 299 299 300 301 301 301 302 302 302 302 302 302 302 303 304 304 305 304 303 303 303 303 303 303 304 304 304 305 306 306 306 306 306 306 306 305 305 303 303 303 303 302 303 303 302 302 302 300 297 296 295 295 294 295 296 297 300 303 308 313 321 324 324 324 325 325 325 326 326 326 325 324 326 325 324 323 323 322 322 322 322
298 298 298 299 298 298 299 300 301 301 301 300 301 301 301 301 302 303 303 303 303 302 302 302 302 302 302 303 303 304 304 304 304 304 305 305 305 305 305 305 304 304 304 303 302 302 302 301 302 301 301 299 297 296 296 295 294 294 295 296 298 300 304 309 316 322 324 324 324 325 325 325 326 327 320 320 321 323 323 321 322 322 322 321 321
297 297 298 298 298 298 298 299 299 299 300 300 300 299 300 300 301 302 302 302 302 301 301 301 301 301 301 302 303 303 302 302 302 302 303 303 303 304 304 304 304 303 303 303 302 302 301 300 300 300 300 299 297 296 297 296 295 294 294 295 297 299 303 308 314 319 322 323 324 324 325 327 321 319 315 311 308 310 316 322 322 322 321 321 321
297 297 297 297 297 297 298 298 298 298 299 299 299 300 300 300 300 301 301 301 301 301 301 300 300 301 301 301 301 301 301 301 301 301 301 302 302 302 302 302 302 302 302 303 302 301 300 300 299 299 298 298 297 296 294 293 293 294 296 296 296 299 304 309 313 317 320 321 322 324 323 324 322 320 316 308 305 304 305 309 312 316 319 322 321
296 296 296 296 297 297 297 297 298 298 299 299 299 299 299 299 299 300 300 301 300 300 300 300 300 300 300 300 300 300 300 300 300 300 301 301 301 301 301 300 300 300 301 302 302 302 301 300 299 299 298 298 296 296 292 293 293 292 295 297 299 302 307 310 314 317 320 321 321 320 321 323 323 324 322 316 310 303 300 301 305 308 307 308 311
296 296 296 295 296 297 297 297 298 298 299 299 299 299 299 299 299 299 300 299 299 299 299 299 300 300 299 300 300 299 299 299 299 300 300 300 300 299 299 299 299 300 299 300 300 301 300 300 299 298 298 297 296 294 292 293 293 292 293 296 302 305 308 312 314 315 319 322 319 318 319 321 324 323 324 320 318 315 304 299 305 308 308 303 302
296 296 296 296 296 297 298 298 298 299 300 299 300 299 299 300 299 299 298 298 298 298 298 299 299 299 299 299 299 299 298 298 298 299 299 299 298 298 298 299 299 298 298 298 299 299 299 299 298 298 297 297 296 294 292 293 292 292 292 295 300 303 308 311 310 312 307 307 308 311 316 319 320 321 321 321 320 316 313 312 311 314 318 314 302
295 295 296 296 296 297 297 297 298 299 298 299 299 299 299 299 298 298 297 297 297 297 298 298 298 298 298 298 298 298 298 297 297 297 297 297 297 297 298 299 298 297 297 297 297 298 299 298 297 297 297 296 296 293 292 292 292 292 293 295 297 299 303 306 307 308 306 305 304 303 303 305 306 314 319 318 319 317 316 316 316 317 319 317 318
296 295 295 296 297 297 296 297 299 298 298 299 298 298 298 297 298 297 296 295 296 296 297 297 297 297 297 297 297 297 296 296 296 296 296 295 296 296 296 298 298 296 297 297 297 298 298 297 297 297 295 295 295 293 292 292 292 292 294 296 296 297 299 300 301 303 302 301 302 301 299 297 298 303 300 291 297 314 317 316 315 317 318 314 304
296 296 296 297 297 297 297 297 297 297 297 297 297 297 297 296 296 296 295 295 295 295 295 296 297 297 297 297 297 296 296 296 296 295 294 294 294 295 295 297 296 296 295 295 296 297 298 297 297 296 295 294 294 294 292 292 292 292 294 295 295 295 296 296 297 299 299 299 299 299 298 295 295 296 294 290 292 296 319 319 318 318 316 310 306
297 297 297 296 296 297 298 297 296 297 297 297 296 297 296 295 295 295 294 294 294 294 295 296 296 296 297 297 297 296 295 295 295 294 294 294 294 294 294 295 295 295 295 295 296 297 297 297 296 296 297 295 294 295 293 292 292 292 294 294 295 294 295 295 295 297 297 297 298 299 300 295 294 294 291 290 291 299 313 319 318 318 313 310 306
296 295 295 296 296 297 297 297 296 296 296 296 296 296 295 294 294 294 294 293 293 294 294 295 296 296 296 296 296 296 295 294 294 294 294 293 293 294 294 294 294 294 294 294 296 296 296 296 296 296 298 296 295 295 293 292 292 292 293 294 294 294 294 294 294 294 295 295 296 297 297 294 294 292 290 290 290 297 311 317 317 317 314 311 307
296 296 296 296 298 297 295 295 295 295 296 296 296 296 296 294 294 293 293 293 293 294 294 295 296 296 296 296 296 296 295 294 293 294 294 293 294 293 293 293 293 293 293 293 293 295 297 297 297 295 295 295 295 294 294 292 292 292 292 293 293 293 292 293 293 293 293 293 294 294 295 292 290 290 290 290 291 290 298 315 317 316 313 311 308
296 296 297 295 295 295 295 296 296 296 296 296 296 295 294 294 293 293 293 293 294 294 295 295 295 295 296 296 295 295 294 294 294 294 294 294 293 293 292 292 292 292 292 292 292 293 296 295 295 295 294 294 296 295 294 292 292 292 292 292 292 292 292 294 293 292 292 291 292 292 293 292 290 290 290 290 290 291 291 301 315 317 315 309 305
296 296 296 295 295 295 295 296 296 297 297 296 295 294 294 293 292 292 293 294 295 295 294 294 295 294 295 295 295 295 296 297 295 294 293 293 293 294 293 292 291 291 291 291 291 291 293 293 292 293 294 293 295 297 294 293 292 292 292 292 292 292 291 294 293 292 291 291 291 292 292 291 290 290 290 290 290 291 291 296 294 294 297 298 308
294 295 296 296 295 295 295 295 296 296 296 296 295 294 293 293 293 293 295 295 295 295 295 294 294 295 295 295 295 295 296 298 296 294 293 293 293 293 292 292 291 290 290 290 290 290 290 291 290 290 291 292 293 294 294 293 292 291 291 291 291 291 290 293 293 291 291 291 291 291 292 292 290 290 290 290 290 290 292 292 290 293 295 297 302
294 295 295 296 295 295 294 294 295 296 296 296 295 294 293 292 293 294 294 295 294 294 294 293 293 294 294 294 296 296 295 294 295 294 293 293 292 292 292 292 291 290 289 289 289 290 289 289 289 289 290 290 291 292 293 292 291 291 290 291 290 290 290 291 293 292 292 291 290 290 291 290 290 290 290 290 290 290 291 290 291 292 295 299 306
294 294 295 294 294 293 293 293 293 294 295 295 294 294 293 292 294 294 294 294 294 294 294 294 293 293 292 294 293 295 295 294 293 293 293 293 292 291 291 291 291 290 289 288 289 289 288 288 289 288 288 289 289 290 291 291 291 291 290 290 290 290 291 290 291 292 292 291 290 289 289 289 290 290 290 290 290 290 290 290 290 292 296 298 300
293 293 293 293 293 292 292 291 292 294 295 295 295 294 293 293 295 295 294 294 295 294 294 293 293 293 293 294 294 293 294 294 293 294 294 293 293 292 291 290 289 289 288 288 288 288 288 288 288 288 288 288 289 289 289 290 291 291 291 290 290 291 292 291 291 291 290 290 289 289 289 289 290 290 291 291 290 290 290 290 291 293 294 294 295
292 293 293 293 292 292 292 292 291 292 292 295 296 295 295 295 295 295 295 295 294 294 293 292 292 293 293 293 293 293 292 293 293 294 294 294 292 291 291 289 288 288 288 287 287 288 288 288 287 287 288 288 288 288 288 288 289 289 290 290 290 291 291 291 291 291 291 291 291 290 289 289 289 289 289 290 290 290 290 291 292 292 292 292 293
292 292 293 292 292 291 292 292 292 292 293 293 294 295 295 296 295 296 294 295 294 294 293 291 292 292 292 292 293 291 292 291 293 293 292 293 292 292 289 289 287 288 288 287 287 287 287 287 287 287 287 287 287 287 288 287 287 288 289 290 290 290 289 289 289 289 290 291 290 290 289 290 289 289 289 289 289 289 289 288 289 290 291 291 292
292 292 292 292 291 292 292 293 293 293 293 294 294 294 296 294 295 295 295 294 293 293 292 292 291 292 292 292 294 293 292 291 292 291 290 289 289 291 290 289 288 287 288 289 288 287 287 287 287 287 287 286 286 287 288 288 289 288 288 289 289 289 289 288 290 289 290 289 289 288 288 288 287 287 286 287 287 287 287 288 288 288 289 289 289
293 293 293 293 293 292 293 293 293 293 294 294 295 295 295 295 295 295 295 293 293 292 291 291 292 292 292 292 293 292 294 293 290 291 289 290 288 289 289 289 288 288 285 287 289 287 287 286 286 287 288 286 286 287 288 289 289 289 289 289 289 289 289 289 289 289 289 287 287 287 287 286 286 286 286 285 286 286 286 286 286 286 287 287 287
293 292 292 291 292 294 293 293 293 293 294 294 294 295 295 295 295 295 295 293 293 292 291 291 292 292 291 292 292 292 293 293 292 290 290 289 288 288 289 289 290 289 288 289 288 288 288 288 288 286 288 289 289 289 289 289 290 290 289 289 289 289 289 289 289 288 287 287 286 286 286 286 286 286 285 285 285 286 285 286 286 286 286 286 286
Wind_Speed
9 11 11 11 10 9 10 10 10 12 11 10 9 8 8 6 4 5 6 6 2 3 2 2 1 0 1 5 4 0 5 6 6 8 7 3 5 5 5 5 4 3 3 3 4 4 4 4 4 5 4 5 6 7 6 6 5 4 3 3 4 3 4 3 3 2 2 1 1 1 2 1 4 0 3 2 2 2 2 4 5 6 6 7 7
10 11 10 10 9 10 10 9 11 11 9 10 9 8 7 7 7 6 3 3 2 1 2 2 1 1 1 2 3 6 4 5 5 5 7 9 11 8 3 4 3 4 3 4 5 5 5 5 5 6 6 6 6 6 5 5 4 4 4 3 3 5 4 4 3 4 3 5 4 2 2 2 2 4 2 2 4 4 5 5 4 6 7 6 5
10 8 8 8 9 9 9 9 9 8 8 9 7 9 9 8 7 5 3 3 3 3 3 1 0 1 2 2 1 1 7 7 4 5 4 6 10 9 9 9 2 4 5 6 6 6 7 7 7 7 7 7 6 5 5 5 5 5 5 6 4 3 4 2 5 7 6 3 1 2 3 1 2 4 4 4 5 4 6 9 8 6 6 6 6
10 8 8 8 8 8 8 9 8 8 8 8 8 7 5 5 6 7 6 5 5 5 3 2 1 2 1 3 2 1 1 3 5 8 10 10 9 9 10 8 8 7 5 5 6 8 9 9 8 7 7 7 7 6 4 6 5 6 5 5 4 6 4 6 6 8 6 5 4 7 2 2 4 8 7 4 5 6 6 7 6 7 6 5 4
8 8 8 7 8 8 8 7 6 8 7 7 7 6 5 6 6 6 5 5 5 6 7 4 4 4 3 2 1 1 1 1 0 2 3 5 6 8 8 8 9 8 10 9 7 5 6 8 7 7 6 6 5 4 3 4 5 6 6 7 8 8 8 6 6 7 9 9 6 2 1 3 7 1 5 5 4 5 7 6 6 7 7 7 6
8 8 7 7 7 7 8 7 7 6 7 4 4 5 6 6 7 6 6 6 7 8 8 6 5 5 5 5 4 3 3 3 2 1 3 4 4 3 4 11 13 10 9 9 10 8 10 8 6 6 6 4 1 1 4 6 8 7 3 6 6 9 9 8 8 6 9 9 7 6 1 3 4 4 5 5 3 3 2 4 6 6 6 6 5
7 7 6 7 7 8 7 7 6 7 5 4 4 5 6 6 5 6 6 6 6 7 9 7 7 6 5 4 3 2 3 1 1 1 1 3 4 5 5 5 5 6 10 11 10 9 8 3 3 2 1 3 1 7 7 8 7 6 6 9 10 10 9 9 10 8 6 8 9 9 3 4 4 2 6 3 4 2 4 6 4 5 6 6 6
6 6 6 7 8 7 6 6 6 6 5 6 6 6 7 6 5 4 5 6 6 7 8 8 8 8 8 8 6 6 4 4 3 3 1 2 4 5 5 5 4 3 2 2 3 3 3 4 2 2 3 4 5 7 8 8 5 5 6 8 9 9 9 8 8 8 8 6 8 9 8 3 2 7 1 3 5 6 5 2 2 5 4 5 6
6 6 6 7 8 6 5 7 6 6 6 7 6 6 6 6 6 6 8 7 7 7 7 7 7 7 7 7 7 6 7 7 7 5 4 3 3 5 4 4 4 4 3 3 3 4 5 4 2 3 1 2 5 5 5 6 8 9 8 8 6 5 5 8 8 8 8 10 6 7 7 6 5 3 2 6 2 4 3 7 5 3 4 5 6
6 6 5 7 6 5 6 6 6 5 5 5 6 5 5 6 7 7 7 6 6 8 8 8 8 7 7 8 9 8 7 7 7 7 7 6 5 5 5 5 5 4 4 4 5 5 5 3 1 1 2 5 4 4 5 3 4 8 10 8 8 9 7 8 9 8 8 8 8 8 7 5 5 5 4 6 2 3 4 7 7 9 8 7 6
6 6 6 6 5 5 6 6 5 5 5 5 5 6 6 7 7 7 5 5 6 7 8 9 8 8 7 8 9 10 9 8 8 8 7 9 9 8 8 7 6 5 5 5 4 5 5 3 2 3 3 7 6 3 4 4 6 7 7 8 9 9 8 8 8 8 7 8 9 7 9 9 9 10 9 6 5 4 3 4 5 7 9 5 7
6 6 6 7 6 6 5 6 6 6 6 6 6 5 4 3 4 4 4 5 6 7 7 7 8 9 10 10 10 9 9 8 8 6 7 8 9 8 7 7 6 5 4 4 5 4 3 3 3 1 3 4 5 6 7 7 4 6 5 6 6 8 8 8 9 10 8 6 8 7 8 9 9 9 7 8 8 6 7 5 6 4 2 4 3
7 6 6 6 5 5 6 6 5 5 4 4 4 2 2 2 3 4 5 5 4 4 6 8 8 8 9 10 10 9 10 10 9 9 8 8 7 8 8 8 7 7 6 7 6 6 5 6 5 5 5 5 4 3 3 3 2 5 6 8 9 8 9 9 9 10 9 9 10 8 8 8 9 8 7 7 7 5 6 5 5 5 5 4 3
7 6 5 5 4 6 6 5 4 3 4 3 2 2 2 2 3 5 5 4 3 4 5 6 7 8 9 8 7 8 9 9 9 10 10 8 7 9 9 9 9 9 9 8 7 6 6 6 4 4 4 5 5 5 5 4 5 6 6 7 8 6 6 10 10 10 10 10 6 7 8 8 8 7 7 7 7 7 7 9 5 3 3 5 2
7 7 6 5 7 6 5 3 2 2 2 1 1 3 3 4 4 5 5 5 4 4 4 6 6 6 8 8 8 8 7 6 6 8 9 10 9 9 9 9 9 10 10 9 9 7 7 6 5 5 5 4 5 5 5 5 5 6 5 6 4 5 8 10 10 10 9 9 9 9 9 9 7 7 7 8 8 8 8 7 8 7 3 3 5
8 6 5 4 4 4 3 3 2 2 3 3 3 3 3 4 6 5 4 4 4 4 4 5 5 5 5 8 7 7 7 7 7 7 8 8 8 9 9 9 8 9 9 10 10 10 9 7 6 6 5 5 6 6 6 6 6 7 8 7 7 6 9 11 10 8 9 9 9 8 7 7 7 8 8 8 9 9 9 8 8 9 9 6 4
7 5 4 3 4 4 3 2 2 2 3 3 1 2 3 4 6 6 7 6 6 3 4 4 5 5 6 6 8 8 8 8 7 8 8 8 8 9 8 8 8 8 9 10 11 12 10 9 8 7 7 6 6 6 6 7 7 7 7 7 9 8 5 6 6 8 9 8 7 9 6 6 9 8 8 8 8 7 8 8 8 10 9 8 7
8 7 4 3 4 3 2 2 1 1 2 2 3 4 6 5 4 5 6 6 6 4 4 6 6 5 6 7 7 7 7 6 6 7 7 7 8 8 9 10 10 10 9 9 10 12 11 11 8 8 8 7 8 8 7 8 7 7 8 9 8 7 9 9 9 8 7 5 6 7 8 9 8 8 9 9 8 9 8 8 8 8 8 9 8
6 5 5 4 3 3 2 3 4 3 4 4 5 5 4 5 4 5 5 5 5 5 6 6 6 5 4 4 4 5 6 6 6 7 6 7 8 9 11 9 10 10 9 9 9 11 12 12 12 12 11 10 9 9 8 7 8 9 8 7 7 7 5 7 5 6 6 5 5 6 7 8 8 9 9 8 8 8 8 7 7 7 7 8 7
4 4 4 5 4 5 5 5 5 6 7 6 7 7 7 6 7 5 6 7 8 9 8 8 6 5 5 3 4 4 6 7 7 8 7 9 9 10 11 10 11 9 10 11 11 12 13 14 13 13 13 11 10 9 8 8 8 8 8 7 8 8 7 9 7 5 4 3 5 6 7 8 8 8 8 8 8 8 8 8 7 7 7 6 6
3 4 6 5 5 5 5 5 5 5 6 7 7 8 6 5 6 6 7 7 8 9 8 7 6 6 5 6 6 6 8 7 8 8 8 9 9 10 10 10 10 11 11 12 12 12 12 12 12 16 17 17 15 12 8 7 7 8 8 8 7 6 7 5 2 6 6 6 7 7 6 8 8 8 7 7 7 6 5 5 6 6 8 7 7
3 4 4 4 5 4 4 5 5 6 6 7 7 6 7 6 6 8 8 8 8 9 8 7 6 7 6 7 6 5 6 6 8 9 9 9 10 10 10 11 11 11 11 12 12 11 11 11 12 15 14 14 14 16 18 14 11 8 8 5 4 5 4 3 3 4 4 3 4 6 8 7 6 8 7 7 7 7 8 7 7 8 8 8 8
4 4 4 5 4 4 4 5 5 5 5 5 5 6 6 6 5 6 8 8 7 8 8 8 8 8 8 7 6 6 6 7 9 9 10 10 9 9 11 12 12 11 11 11 11 12 12 11 11 13 14 13 13 14 12 13 14 15 13 7 3 5 5 4 5 6 7 6 5 5 6 6 5 7 7 7 5 8 6 5 10 9 9 9 9
6 5 5 6 5 5 6 5 6 6 6 5 5 4 5 6 6 6 8 8 8 7 8 8 8 9 9 9 9 9 8 8 9 10 11 10 9 8 10 11 11 11 12 11 11 12 11 12 11 14 14 14 14 15 14 13 14 14 15 13 5 3 3 4 5 5 4 4 5 5 5 6 7 7 7 6 7 6 5 8 11 10 11 11 8
7 6 6 6 6 5 5 5 5 5 5 5 5 4 5 6 6 6 7 7 7 8 9 9 8 8 9 9 10 10 11 10 10 10 10 10 9 8 8 10 11 12 12 12 11 11 12 13 11 11 14 14 13 14 15 16 15 13 14 14 13 7 4 4 4 5 4 4 5 5 6 7 7 8 8 7 4 5 5 6 8 9 10 9 7
7 6 6 5 4 4 5 5 5 5 5 5 5 5 5 5 6 5 7 8 8 8 8 6 6 6 7 8 9 10 11 10 10 10 10 10 9 8 7 8 9 11 11 12 12 11 11 13 14 10 12 14 14 14 14 15 15 15 14 12 11 12 9 6 6 5 3 5 8 8 7 8 8 9 9 4 6 7 6 8 12 9 7 7 9
6 5 4 4 5 4 3 4 5 4 4 5 5 6 6 6 7 7 7 8 7 6 5 4 4 6 7 8 9 10 10 10 10 10 9 9 9 9 7 7 7 9 11 11 12 12 11 12 13 12 14 15 15 14 14 16 15 14 14 13 11 11 12 11 6 4 4 5 6 6 6 6 8 8 7 5 6 10 10 13 13 8 7 9 9
6 6 6 5 4 4 4 3 4 5 5 5 5 5 5 6 7 7 7 7 5 4 4 4 4 6 7 8 8 8 9 10 10 9 9 9 10 10 9 7 6 8 9 11 12 11 10 10 11 12 13 13 14 14 15 17 15 13 13 13 11 11 10 11 10 5 5 7 6 6 6 6 6 6 6 5 5 7 10 12 9 7 8 9 9
7 5 5 5 4 4 5 5 4 4 4 5 5 4 5 5 6 7 6 5 4 4 4 5 5 5 7 7 6 6 7 8 9 10 10 11 11 10 10 9 8 7 7 9 9 10 12 13 13 12 13 13 13 13 15 18 17 17 13 11 12 11 10 10 11 8 6 4 5 5 5 5 5 8 7 6 5 6 7 8 6 5 6 8 8
7 6 5 5 4 4 5 6 5 5 5 4 4 4 5 5 5 6 6 6 5 6 7 8 9 8 5 5 6 5 6 6 8 9 9 9 10 10 10 11 12 10 7 7 10 10 12 13 14 14 12 12 12 11 22 26 22 16 14 11 10 10 9 9 10 10 7 5 3 3 4 8 9 9 9 10 11 11 12 10 9 8 8 8 8
8 7 6 5 4 4 5 6 6 6 6 5 4 4 7 9 7 5 6 7 7 8 9 10 9 9 9 7 4 5 5 6 6 6 7 8 8 8 9 11 12 12 12 9 9 11 12 12 13 13 14 13 12 15 26 23 23 25 17 12 10 10 8 7 8 9 9 7 5 2 3 4 5 6 7 11 11 11 13 15 15 15 9 9 10
8 6 6 5 4 4 4 4 5 5 6 6 7 7 8 7 6 6 6 7 8 8 9 10 9 8 8 9 8 6 6 5 5 6 7 6 6 7 8 9 11 13 12 12 12 12 11 12 12 12 13 14 13 22 24 25 25 24 22 14 10 9 9 8 9 9 8 5 3 5 3 3 4 5 4 6 7 8 10 9 12 18 17 15 10
8 7 6 4 4 4 4 4 4 5 6 6 7 7 6 6 8 6 6 6 6 7 8 8 8 8 9 9 9 9 9 11 9 7 6 8 7 6 7 8 11 10 10 12 12 13 13 12 13 14 13 15 14 22 23 26 26 25 25 19 10 10 9 10 11 12 12 5 5 6 6 5 5 7 5 4 5 6 8 10 19 20 18 13 9
7 6 5 4 4 4 4 4 5 5 6 5 5 5 5 5 7 7 7 5 5 6 7 8 7 8 8 8 9 8 9 10 11 11 10 10 11 9 5 5 6 9 10 10 11 12 12 13 13 13 12 12 13 21 24 25 26 26 24 19 13 13 12 12 13 12 13 13 12 11 11 8 7 6 4 3 2 4 6 7 8 10 10 6 1
9 7 5 5 4 5 5 6 6 5 5 6 7 6 5 6 5 6 6 6 5 5 7 7 8 7 7 7 8 8 8 9 10 10 11 11 12 11 9 5 7 8 10 10 10 10 11 12 12 11 11 11 13 24 23 24 25 25 23 16 13 12 12 13 13 13 13 14 12 12 11 12 13 11 10 9 1 2 2 6 8 8 6 6 6
7 6 5 5 5 6 6 5 4 6 5 5 5 5 6 5 5 5 4 4 5 6 6 6 7 7 8 7 8 8 8 8 8 9 10 11 11 11 12 8 5 7 7 7 7 8 9 10 10 11 11 12 12 21 23 23 24 24 21 14 13 13 13 13 13 14 12 13 12 13 11 13 12 11 15 22 17 6 3 2 4 5 7 4 3
6 6 5 4 4 5 5 5 5 6 6 5 4 4 5 5 5 5 4 5 6 6 5 6 7 7 7 7 8 8 7 6 6 8 10 11 11 11 10 9 7 6 8 8 7 7 7 8 9 10 11 11 11 18 22 23 23 24 17 13 13 12 13 13 11 12 11 11 11 14 12 11 12 11 19 22 16 10 2 5 6 5 4 4 3
6 5 6 5 5 5 5 6 6 6 6 5 5 5 6 5 5 5 6 5 6 6 5 5 6 6 6 7 7 7 6 6 6 7 8 8 9 8 9 8 9 7 9 8 5 6 6 7 8 10 10 10 11 15 21 22 22 23 18 13 12 12 11 12 11 12 11 10 12 21 19 13 13 13 20 19 17 7 5 7 6 5 6 6 5
7 5 6 5 5 6 6 7 7 6 4 4 6 7 6 4 4 4 5 5 5 5 5 6 6 6 6 5 5 6 5 5 5 6 6 7 7 8 6 7 7 7 8 9 8 5 6 6 7 7 14 11 10 12 19 20 22 22 18 11 11 10 11 12 11 11 11 10 12 13 19 18 15 16 19 19 19 10 4 6 5 5 6 8 8
6 6 6 6 6 7 7 7 7 5 5 5 5 5 4 5 5 4 5 5 4 4 5 6 6 5 5 5 4 5 4 4 5 5 5 5 5 5 7 7 7 7 8 9 9 6 9 8 7 7 8 8 9 10 14 20 20 21 21 13 10 11 13 13 11 12 11 11 12 11 14 20 20 20 20 20 19 16 9 7 4 5 8 8 7
7 6 5 5 5 6 7 7 6 5 4 4 5 4 4 5 5 5 5 5 5 5 5 5 5 5 5 5 4 4 5 4 4 4 4 4 5 5 5 6 6 6 7 9 10 7 8 9 9 8 8 9 9 10 12 18 19 20 20 17 10 11 11 10 10 10 10 11 12 11 10 19 21 20 20 21 21 20 16 9 6 4 5 4 9
5 7 8 6 6 6 6 6 6 5 4 3 4 5 5 4 4 5 5 5 6 7 5 5 5 4 4 4 4 3 3 4 4 4 5 6 5 5 5 5 6 6 7 8 7 6 6 8 9 9 9 9 11 14 11 15 18 19 19 20 12 11 11 9 9 9 10 10 11 11 11 17 19 19 20 20 23 21 20 10 10 10 7 16 8
8 7 7 7 6 6 5 5 5 5 3 4 4 6 5 4 5 5 4 5 6 6 5 4 4 4 4 4 3 2 3 4 5 5 5 5 5 6 6 5 5 5 7 7 8 7 5 7 8 8 8 9 10 10 14 13 17 18 19 18 18 14 16 9 9 11 12 10 9 10 12 19 18 19 18 20 21 22 17 15 17 8 12 14 10
7 8 8 8 7 6 6 5 5 5 3 3 4 4 5 5 5 5 5 5 5 5 5 5 3 2 3 4 3 1 2 4 5 5 5 5 6 5 5 6 6 6 7 8 8 7 6 7 9 9 8 9 9 9 11 15 14 18 17 18 17 17 17 11 9 9 9 9 9 10 12 18 18 18 19 18 20 21 17 23 19 18 12 9 8
9 8 8 6 7 6 6 6 5 4 3 2 4 4 4 5 2 5 5 5 5 5 5 6 6 5 4 4 4 1 2 4 4 5 5 5 5 4 6 6 6 6 6 7 7 7 7 7 8 9 9 9 9 9 9 13 17 16 17 17 17 17 17 16 10 8 9 9 12 16 17 16 17 18 18 17 16 19 23 23 22 18 16 9 7
9 8 8 7 7 6 6 5 3 3 4 3 3 3 5 5 5 4 4 4 5 5 6 6 6 6 6 5 7 6 3 3 4 5 5 4 5 5 6 6 6 6 6 6 7 7 8 7 7 8 9 9 9 9 9 10 11 13 12 15 16 15 16 16 13 10 14 15 16 15 16 16 15 16 13 13 12 13 18 22 23 19 12 12 10
10 9 8 7 6 6 5 5 5 4 4 2 1 4 5 5 5 5 5 5 4 4 5 6 6 6 6 5 6 6 4 3 4 5 6 4 4 5 5 5 6 5 5 6 6 7 8 8 8 9 8 8 8 9 8 9 10 9 9 9 9 9 12 12 10 9 10 10 11 11 10 13 12 16 16 14 14 15 15 14 13 13 12 11 11
7 7 8 7 6 5 5 5 5 4 5 4 4 3 5 7 5 5 5 5 6 5 4 4 5 5 6 4 6 8 7 3 4 5 6 5 3 4 5 5 4 4 6 6 6 7 7 7 8 8 8 8 8 9 9 9 9 8 9 8 7 7 8 7 8 8 7 8 8 10 13 12 12 12 12 12 12 11 11 11 11 11 11 12 12
8 6 7 6 5 5 5 5 5 4 4 3 3 4 2 4 4 5 5 5 6 6 5 5 4 4 5 4 6 6 6 3 3 4 4 2 2 2 4 3 1 2 3 4 5 5 5 5 6 7 8 9 8 9 9 10 10 10 7 6 7 6 6 6 7 10 8 8 9 11 11 12 11 11 11 11 10 11 11 11 13 11 10 10 11
7 7 7 6 5 5 5 6 5 5 4 2 1 3 4 5 4 4 4 5 5 5 4 4 4 6 5 4 4 6 6 6 3 2 2 2 2 4 1 3 1 0 2 1 1 3 2 3 5 6 5 7 8 8 13 17 17 16 16 14 11 10 8 7 7 10 7 8 9 9 9 9 9 9 10 10 10 9 9 10 10 10 10 10 10
8 8 6 6 5 5 5 6 5 5 4 2 3 4 3 4 5 5 4 4 4 4 4 4 6 6 6 4 4 5 6 5 6 3 2 1 1 1 7 6 4 4 2 2 3 4 5 5 3 4 6 9 12 15 15 17 19 18 16 15 13 12 11 10 8 6 9 9 9 9 9 8 8 8 8 8 8 8 8 8 8 8 8 9 8
Wind_Direction
66 60 56 54 53 56 58 52 54 53 41 43 49 52 46 59 107 125 166 214 138 78 58 80 84 339 199 171 165 172 307 317 315 316 309 229 170 193 236 242 231 252 245 231 239 230 217 215 219 243 238 215 215 224 224 225 220 210 222 223 225 235 249 224 226 169 165 302 22 340 321 42 290 146 238 179 208 187 197 146 205 203 166 166 174
59 52 46 49 49 53 56 52 47 50 37 41 38 41 40 37 32 28 26 59 41 93 142 132 181 177 200 235 132 159 215 248 278 306 291 309 313 293 201 176 254 267 254 249 246 228 224 220 224 230 229 228 222 226 226 221 214 208 197 234 211 212 239 203 208 132 229 215 212 264 299 275 247 305 269 238 192 199 172 142 207 205 163 166 171
61 60 50 46 49 53 56 58 56 55 50 46 32 36 31 25 18 1 5 39 42 37 75 86 247 204 176 248 210 163 154 178 159 228 249 278 286 290 295 298 240 201 222 221 223 228 226 223 223 223 220 221 228 233 235 238 230 218 197 206 227 221 237 222 197 192 220 201 157 97 244 283 250 218 239 242 241 192 176 164 183 173 169 171 173
64 56 51 46 46 52 54 54 50 51 47 41 34 34 33 22 20 22 23 34 35 20 18 343 268 294 239 207 233 177 217 180 177 179 184 192 208 242 278 285 292 287 257 223 219 208 206 214 219 219 216 209 214 227 253 262 254 249 245 242 235 241 220 239 202 205 194 127 238 216 190 174 265 240 213 231 214 223 188 171 167 169 167 173 166
67 60 55 52 51 49 52 57 53 53 49 43 33 30 21 24 31 29 23 21 23 15 5 359 11 23 353 336 329 351 23 6 270 285 237 195 176 182 209 245 272 281 286 284 269 257 229 213 206 210 211 216 201 207 271 283 299 270 239 225 226 232 235 225 227 208 213 195 187 130 207 225 226 199 165 245 201 220 217 182 181 171 171 174 180
72 67 63 64 62 57 51 48 54 55 54 40 36 31 31 22 24 26 25 26 17 8 6 2 9 17 12 23 7 2 341 350 336 16 11 345 297 256 193 189 199 220 243 260 263 248 251 238 226 209 202 215 39 355 216 225 239 232 298 276 267 245 237 232 233 216 220 223 208 232 206 220 195 180 144 232 200 227 238 207 181 182 175 174 181
72 74 68 67 66 64 57 52 49 53 49 47 43 41 32 28 23 28 27 23 15 12 6 8 5 7 16 24 10 329 324 277 327 7 18 300 296 298 284 282 263 198 191 213 224 229 240 256 270 272 78 57 86 247 244 233 224 228 226 224 222 220 225 238 229 225 215 225 228 233 234 234 286 183 189 99 197 227 207 208 194 188 183 180 186
93 84 82 75 70 66 62 59 52 49 45 44 39 30 30 21 19 35 33 29 16 11 10 10 11 6 11 19 10 6 357 312 310 308 285 269 284 273 273 269 265 297 278 258 268 262 272 237 239 312 268 118 195 220 231 240 230 216 222 236 245 239 229 227 235 231 214 230 209 224 232 233 240 260 320 194 157 176 223 237 213 200 192 206 195
97 97 89 81 72 63 69 60 49 42 45 44 33 25 22 16 19 29 34 23 10 9 11 14 19 16 12 11 12 12 12 5 351 339 316 288 288 294 302 303 326 323 332 309 280 269 257 268 155 223 239 143 212 230 222 215 228 240 238 229 241 280 269 252 242 230 217 231 204 227 221 207 220 264 220 252 175 155 206 188 191 177 198 218 219
93 88 90 88 85 82 68 69 53 45 50 50 41 25 22 17 16 23 40 28 15 14 16 17 17 17 19 11 13 9 11 9 11 359 355 348 340 331 325 330 324 325 320 315 311 301 280 246 113 204 230 271 243 211 230 192 224 229 234 233 225 232 234 242 237 238 227 229 215 209 218 198 205 233 242 227 240 162 164 198 195 183 195 210 197
105 96 84 74 80 78 77 68 64 46 42 46 38 28 18 22 11 11 34 32 25 28 22 19 17 17 16 11 16 9 6 9 6 2 359 0 2 356 354 337 322 313 304 299 291 291 298 298 218 210 225 232 240 233 259 224 214 241 251 244 234 227 232 243 252 247 231 223 213 201 205 204 198 205 209 209 200 183 186 199 194 202 207 179 211
91 89 81 72 61 60 59 62 51 45 42 42 42 24 16 16 358 8 12 38 35 31 28 27 29 15 14 16 15 8 5 4 0 357 9 0 356 347 342 336 330 314 302 294 296 310 326 317 304 285 219 221 231 207 219 237 209 230 240 272 258 237 233 231 239 238 223 238 225 206 212 206 212 203 200 198 199 201 187 186 187 190 227 222 168
104 84 76 71 73 66 54 44 48 45 42 49 43 32 341 331 347 29 29 39 50 50 42 30 26 28 27 17 12 6 6 4 357 2 7 3 353 345 340 339 333 334 339 338 332 328 322 309 305 306 301 280 267 248 247 243 220 237 238 244 246 229 228 233 237 237 224 218 216 202 213 211 213 207 198 198 206 183 175 182 204 174 191 195 193
88 84 78 75 73 67 56 51 41 40 56 43 21 341 319 325 354 54 45 35 36 55 58 54 40 31 33 23 13 11 9 359 1 6 1 356 352 343 343 341 339 339 337 341 331 323 317 301 293 284 270 265 267 258 247 238 248 242 222 234 235 224 227 236 237 243 235 225 191 204 202 207 212 199 200 192 200 186 199 198 177 195 187 186 176
74 68 62 62 68 69 71 60 34 52 65 62 39 1 351 6 26 54 42 18 22 50 66 68 61 52 38 23 13 9 5 6 10 5 1 355 348 345 347 348 345 342 340 337 333 328 319 307 298 296 285 280 284 278 258 247 245 248 249 245 246 253 233 230 228 229 229 213 199 201 204 211 207 202 198 211 209 201 194 192 171 175 193 189 207
92 82 65 55 62 81 73 53 44 47 41 34 33 7 8 12 43 50 40 12 22 58 67 78 84 67 59 40 25 14 9 14 12 9 356 346 345 349 347 344 340 338 338 338 337 333 326 326 322 308 303 298 289 278 275 268 251 255 262 267 263 239 236 228 228 226 231 220 208 204 202 200 210 214 207 208 207 204 202 195 188 184 180 197 195
92 80 66 45 72 85 87 72 53 52 65 64 27 359 355 32 47 42 28 5 11 57 71 70 69 70 57 49 40 23 20 17 12 5 358 356 355 352 345 339 334 341 343 344 339 334 331 332 327 323 317 306 299 290 276 268 259 254 254 254 252 249 250 264 253 238 227 215 195 201 201 205 213 211 208 210 211 208 208 199 194 193 189 185 185
117 121 113 83 69 84 124 134 136 99 99 60 24 19 41 59 65 51 29 9 5 45 63 63 60 55 54 52 43 38 26 19 11 10 7 3 2 358 350 347 346 341 344 342 338 340 338 339 335 331 318 304 293 288 282 277 267 261 254 256 256 247 236 236 229 230 233 205 201 200 194 206 207 205 206 204 205 207 201 197 199 199 187 196 188
105 110 104 100 85 43 58 77 48 47 43 43 25 21 46 59 61 55 29 5 14 35 50 50 53 56 54 57 51 39 38 25 23 17 10 8 14 5 356 346 344 346 346 341 350 357 356 350 345 336 326 315 301 290 285 281 277 271 264 257 250 241 224 250 247 225 228 208 214 216 205 213 210 210 211 203 203 202 202 196 201 197 203 205 187
102 114 112 104 87 68 56 47 48 46 50 42 37 29 33 41 44 33 21 23 29 37 42 40 38 46 43 37 29 41 42 31 32 19 19 17 20 11 1 354 351 347 350 350 0 360 359 355 347 336 329 320 310 299 289 282 280 273 269 261 254 240 234 237 230 231 235 226 231 230 220 219 217 215 214 207 203 201 197 198 201 200 202 196 180
83 90 97 97 92 76 58 48 46 50 52 46 34 29 23 30 37 27 34 29 34 40 39 35 25 27 35 28 28 40 41 39 33 21 27 28 25 15 8 360 355 360 355 358 2 359 359 356 353 359 354 352 337 322 302 290 288 285 276 266 261 246 241 244 171 222 212 216 226 239 244 234 227 225 223 213 215 209 214 216 211 206 209 203 192
105 97 86 83 86 82 69 52 43 47 51 58 43 31 23 16 28 41 32 32 43 43 37 23 19 24 28 23 28 38 41 41 38 26 32 33 28 22 12 8 6 358 2 0 2 357 1 357 18 14 11 6 3 5 0 348 332 317 308 306 283 259 224 210 190 236 232 223 214 218 236 247 249 235 227 238 218 212 203 204 221 217 214 210 204
103 83 74 74 72 77 87 79 65 55 55 58 53 42 25 15 26 49 40 35 41 47 37 28 28 27 21 18 22 31 34 38 39 33 32 31 31 26 21 17 12 1 3 4 360 358 1 1 24 17 8 2 2 2 354 356 354 346 330 313 278 252 257 237 220 215 211 196 206 213 233 242 235 241 230 223 210 221 185 190 220 217 216 213 204
71 68 65 61 60 53 46 51 57 51 51 48 49 44 26 26 32 48 46 37 41 45 41 33 30 29 24 23 26 26 30 34 39 35 32 27 26 32 25 23 18 13 10 2 3 6 4 4 18 26 14 5 6 2 355 354 350 345 342 332 318 303 282 244 234 237 208 207 216 205 222 239 243 245 244 223 213 212 196 201 219 216 213 209 195
71 65 63 60 60 51 45 48 54 57 51 49 48 40 35 33 35 45 47 41 47 47 44 37 32 33 30 31 30 29 28 30 38 34 31 26 22 28 32 25 20 20 18 10 6 4 9 9 9 35 16 8 9 5 2 357 350 345 341 337 333 325 306 289 251 221 220 222 233 220 229 230 233 235 234 223 136 213 216 231 238 218 211 203 193
84 76 67 70 67 58 55 48 56 57 56 54 47 39 35 33 35 46 53 47 47 52 47 42 37 37 35 35 37 34 29 29 30 30 29 27 22 20 31 30 25 23 22 24 22 14 14 15 7 24 22 14 8 8 6 359 350 344 341 336 334 331 314 271 255 247 205 206 230 235 234 231 224 223 230 200 164 188 179 221 231 221 206 195 201
105 100 87 72 60 63 62 78 79 71 68 60 56 46 38 33 31 38 54 53 49 57 49 43 38 44 39 37 40 37 31 28 28 27 25 27 22 17 23 29 26 27 27 24 21 21 20 15 15 16 22 15 8 6 6 360 350 345 339 334 329 327 324 325 306 246 234 234 230 235 242 233 228 220 222 208 181 180 186 218 226 206 196 200 206
101 91 85 76 66 44 32 37 88 89 77 70 61 57 51 44 43 47 55 57 46 50 41 40 46 50 48 46 46 43 38 32 26 22 23 26 21 16 16 21 24 31 31 30 25 23 21 16 18 21 22 17 9 9 5 356 351 343 336 330 326 322 321 317 312 286 224 233 240 242 240 233 225 224 216 205 190 187 191 216 220 201 197 201 207
95 96 89 86 71 46 27 36 65 71 70 75 68 54 47 40 46 58 58 52 46 40 33 35 43 51 51 51 51 50 47 44 37 31 28 26 21 15 14 16 18 26 34 32 29 24 20 20 19 19 20 20 17 12 7 356 346 342 336 328 326 318 313 310 308 306 288 239 234 234 240 244 235 240 223 188 181 201 182 201 234 226 195 198 204
103 95 88 84 75 53 39 37 36 42 47 59 76 65 49 43 41 56 58 39 40 31 38 41 40 35 33 42 53 53 50 46 44 42 37 32 28 22 19 20 18 17 23 30 28 27 26 23 18 16 19 19 15 11 359 355 352 348 335 326 320 316 311 303 308 306 297 286 260 247 245 256 249 238 229 216 211 201 196 187 216 226 221 198 197
107 101 91 80 74 60 47 38 39 44 42 49 58 52 50 44 43 51 58 47 45 43 47 44 40 30 25 27 37 43 44 45 44 38 35 33 30 30 33 30 25 20 16 19 25 28 29 24 21 19 18 19 13 5 357 355 354 354 353 335 321 309 300 299 304 311 310 312 298 274 253 264 260 233 212 205 198 199 204 202 201 217 215 204 197
109 103 94 86 77 73 63 46 38 37 45 50 52 53 53 44 36 41 50 56 55 54 54 49 41 32 26 22 22 26 29 31 36 34 27 24 23 26 32 34 34 28 21 19 22 25 28 25 20 19 20 17 10 3 359 359 358 356 354 344 327 321 315 315 318 315 309 298 275 281 280 274 258 242 197 177 184 178 203 202 203 223 224 218 211
103 100 100 95 86 89 88 66 47 43 50 50 60 57 52 48 45 39 51 54 63 65 65 59 45 35 30 26 23 27 34 32 26 18 16 15 15 21 29 33 34 33 28 25 24 24 26 24 20 19 18 15 10 4 1 1 0 358 355 351 339 336 331 334 345 339 330 318 287 297 298 290 273 270 236 184 158 168 145 180 211 215 225 222 215
105 102 101 98 83 66 75 75 58 49 52 51 56 65 55 56 57 49 47 41 56 63 69 62 50 38 31 28 26 29 35 37 33 27 23 21 19 16 17 28 34 30 32 30 26 28 28 26 22 20 17 13 12 4 2 3 3 0 358 358 357 350 349 357 0 8 18 3 357 348 338 320 321 325 313 276 198 160 142 155 194 210 212 185 167
104 104 102 99 90 71 64 59 49 46 48 56 47 49 51 47 49 57 50 44 44 65 71 67 56 42 34 29 28 31 37 38 37 33 28 27 19 15 18 20 32 30 27 26 24 24 28 28 24 18 15 12 14 6 3 4 4 3 360 1 2 356 353 3 3 12 10 4 357 355 351 353 350 343 353 337 230 194 178 165 183 198 190 186 187
122 115 106 101 97 94 85 76 64 54 46 57 65 60 60 49 50 61 57 47 49 66 77 74 64 53 41 32 33 35 38 40 39 38 37 30 24 17 12 12 30 31 29 28 26 28 29 29 24 19 15 11 8 7 4 5 5 4 3 8 2 360 3 5 2 8 5 1 360 360 354 350 341 337 349 346 335 311 158 227 201 186 177 153 88
120 120 119 114 102 98 100 92 81 68 59 55 59 67 67 58 52 40 44 36 46 54 69 77 73 60 50 43 40 40 39 37 36 43 41 34 27 17 14 7 16 28 27 24 24 22 27 25 21 19 16 13 8 8 7 5 6 5 6 9 6 5 7 5 4 3 1 359 0 2 0 351 342 339 340 339 333 329 213 204 212 203 150 131 252
119 120 118 105 90 82 84 93 91 80 70 56 50 55 59 55 49 43 44 44 52 54 69 79 79 68 60 54 48 43 41 35 39 44 43 41 32 24 17 10 14 16 20 12 8 20 27 22 20 19 15 12 10 7 8 7 7 9 7 9 7 7 5 7 3 3 1 358 358 2 8 2 354 347 341 341 335 345 250 216 206 190 147 156 212
121 122 110 116 120 109 94 80 74 71 63 65 59 64 61 49 46 52 50 52 57 63 76 86 81 77 67 63 58 51 44 43 45 46 50 44 35 28 16 13 15 19 18 6 2 17 23 17 18 17 15 13 8 6 8 6 7 9 10 6 6 3 5 9 4 2 3 0 355 353 2 5 358 349 354 355 350 345 284 237 209 200 189 181 185
122 123 128 118 104 89 83 84 79 71 61 53 60 72 66 49 40 50 55 48 41 62 84 86 88 85 80 62 61 56 44 48 46 49 52 49 37 31 23 24 20 21 18 8 7 12 22 14 8 10 7 7 4 2 4 6 5 6 10 10 5 7 5 3 2 3 356 2 357 355 356 1 357 357 360 0 0 355 331 273 200 201 191 200 170
151 152 124 99 97 105 111 110 101 88 67 51 62 70 60 56 54 53 53 50 34 35 59 87 84 80 82 72 61 66 52 33 51 60 62 46 37 34 25 29 25 24 26 19 16 16 25 17 8 3 4 0 2 2 359 4 1 2 6 11 7 9 355 359 358 2 4 357 354 356 353 358 358 2 4 5 6 0 353 327 299 224 216 136 123
131 123 109 104 101 95 90 91 97 88 69 51 67 66 57 62 62 57 59 54 31 27 46 80 82 78 83 83 77 57 50 45 50 65 63 48 33 30 28 26 27 26 26 24 18 18 24 20 9 4 3 356 357 3 5 1 0 358 359 7 13 5 358 351 1 7 2 5 359 352 356 354 357 4 8 11 10 8 3 8 328 318 111 121 128
116 110 110 103 91 87 88 97 97 92 62 45 74 81 68 58 59 52 66 69 52 41 50 65 83 80 93 107 99 87 53 51 56 68 74 60 42 33 21 22 27 26 25 20 16 13 17 19 13 5 0 356 355 357 5 4 358 358 356 358 4 6 2 2 8 9 7 359 351 356 354 358 1 5 10 14 17 15 12 358 351 48 117 112 113
127 123 116 106 103 98 91 82 86 97 88 49 74 89 89 71 70 70 57 52 54 49 37 35 41 64 50 72 116 97 62 62 69 66 71 69 48 34 26 21 22 29 27 23 14 12 12 15 11 2 0 358 355 356 354 4 1 358 355 353 353 359 6 6 5 6 359 355 354 356 354 358 5 8 11 16 21 22 17 10 7 21 37 93 110
116 115 111 111 115 112 106 100 97 89 101 72 63 93 90 67 38 86 71 70 71 56 39 28 17 12 20 37 56 82 58 71 70 74 72 70 56 42 34 14 24 28 32 28 16 13 14 7 7 2 357 356 354 353 352 356 358 357 353 351 348 351 357 7 7 1 2 355 356 355 358 2 6 9 11 19 22 20 22 20 11 22 37 31 40
104 99 98 101 98 96 95 94 84 116 117 100 55 73 85 68 47 47 61 87 95 82 53 39 32 22 10 11 27 26 31 53 68 67 71 82 83 58 48 26 27 32 34 33 20 17 15 9 6 360 359 356 351 351 351 352 354 352 349 346 346 346 352 358 6 2 2 4 1 359 2 4 10 10 16 20 22 13 23 28 20 16 34 36 32
119 125 122 117 114 108 105 101 86 57 68 74 90 41 84 79 61 55 51 44 53 62 68 53 34 20 14 13 32 25 15 22 52 61 55 58 72 68 58 44 39 35 39 34 25 22 16 10 6 2 357 358 356 353 353 351 353 347 342 341 344 345 349 353 3 3 4 5 4 5 6 13 17 18 20 19 20 19 23 25 32 20 22 34 42
122 118 112 106 106 112 113 110 103 83 62 46 30 30 95 109 100 75 54 57 55 62 61 50 47 32 17 15 25 21 33 18 41 52 55 36 44 78 70 64 54 50 58 41 35 29 17 3 358 357 356 360 0 357 356 351 339 341 332 335 339 346 350 341 355 359 2 4 8 7 16 16 16 20 18 19 18 20 24 25 27 25 23 25 33
92 93 103 117 118 115 123 121 120 111 92 61 25 2 45 100 102 99 81 63 63 55 52 43 17 12 11 23 34 28 16 41 74 67 59 91 88 59 107 67 31 90 97 91 69 48 17 355 350 353 357 1 360 0 348 340 336 330 328 332 339 340 333 336 347 358 5 12 17 22 18 18 18 17 20 21 21 19 20 22 25 25 22 24 30
102 98 98 97 104 117 114 108 102 94 85 80 10 0 61 91 80 103 98 97 94 80 62 27 27 20 355 9 43 33 26 11 63 121 105 52 86 103 58 154 155 207 123 355 90 87 23 353 1 344 349 7 352 333 345 353 354 351 347 348 348 354 357 349 353 1 20 29 23 24 22 19 17 18 19 21 20 23 25 24 23 19 24 26 25
114 112 111 112 117 108 103 103 112 102 87 62 27 15 5 92 91 71 74 99 98 96 75 40 32 22 8 354 37 42 33 22 14 52 104 157 300 331 23 49 123 177 216 295 324 307 319 345 10 346 333 5 1 3 358 359 2 0 359 356 355 354 359 1 7 22 28 32 24 25 20 19 20 22 23 19 18 25 26 25 24 27 30 27 26